Location: Newark
(60.6561°N, 46.5772°E)
Time: 18:20:17
(UTC+00:00)

Transit 2A - Visible Passes

Search period start: 23 October 2019 00:00
Search period end: 02 November 2019 00:00
Orbit: 600 x 958 km, 66.7° (Epoch: 23 October)

Date Brightness Start Highest point End Pass type
(mag) Time Alt. Az. Time Alt. Az. Time Alt. Az.
23 Oct 6.7 15:21:57 10° S 15:26:12 26° ESE 15:26:42 26° ESE visible
23 Oct 6.7 17:03:51 10° SW 17:07:13 41° SW 17:07:13 41° SW visible
24 Oct 7.1 14:48:31 10° SSE 14:52:16 21° ESE 14:53:53 18° E visible
24 Oct 5.8 16:29:46 10° SW 16:34:24 66° S 16:34:24 66° S visible
24 Oct 8.1 18:13:26 10° W 18:14:54 19° W 18:14:54 19° W visible
25 Oct 7.5 14:15:21 10° SSE 14:18:21 16° ESE 14:20:59 11° ENE visible
25 Oct 5.8 15:55:45 10° SSW 16:00:45 56° SE 16:01:29 50° E visible
25 Oct 7.3 17:39:08 10° WSW 17:41:59 32° W 17:41:59 32° W visible
26 Oct 6.1 15:21:51 10° SSW 15:26:42 44° SE 15:28:28 31° E visible
26 Oct 6.3 17:04:51 10° WSW 17:08:58 54° WNW 17:08:58 54° WNW visible
26 Oct 8.6 18:49:04 10° WNW 18:49:28 12° WNW 18:49:28 12° WNW visible
27 Oct 6.5 14:48:04 10° S 14:52:40 35° SE 14:55:24 19° ENE visible
27 Oct 5.7 16:30:37 10° WSW 16:35:37 77° NW 16:35:54 73° N visible
27 Oct 8.1 18:14:44 10° W 18:16:23 20° WNW 18:16:23 20° WNW visible
28 Oct 6.8 14:14:25 10° S 14:18:42 27° ESE 14:22:17 12° ENE visible
28 Oct 5.6 15:56:26 10° SW 16:01:28 89° SSE 16:02:46 48° NE visible
28 Oct 7.4 17:40:24 10° W 17:43:15 30° WNW 17:43:15 30° WNW visible
29 Oct 7.2 13:40:57 10° SSE 13:44:45 21° ESE 13:48:19 10° ENE visible
29 Oct 5.7 15:22:20 10° SW 15:27:21 74° SE 15:29:36 30° ENE visible
29 Oct 6.7 17:06:04 10° W 17:10:05 44° NW 17:10:05 44° NW visible
29 Oct 8.7 18:50:16 10° WNW 18:50:35 12° WNW 18:50:35 12° WNW visible
30 Oct 5.8 14:48:18 10° SSW 14:53:15 59° SE 14:56:24 20° ENE visible
30 Oct 6.2 16:31:44 10° WSW 16:36:32 54° NNW 16:36:53 53° N visible
30 Oct 8.2 18:15:59 10° WNW 18:17:22 18° WNW 18:17:22 18° WNW visible
31 Oct 6.2 14:14:23 10° SSW 14:19:12 46° SE 14:23:10 13° ENE visible
31 Oct 6.0 15:57:27 10° WSW 16:02:20 63° NNW 16:03:39 43° NNE visible
31 Oct 7.7 17:41:40 10° WNW 17:44:08 26° NW 17:44:08 26° NW visible
01 Nov 6.5 13:40:35 10° SSW 13:45:11 36° SE 13:49:26 10° ENE visible
01 Nov 5.8 15:23:13 10° WSW 15:28:09 74° NNW 15:30:24 30° NE visible
01 Nov 7.0 17:07:20 10° W 17:10:52 36° NW 17:10:52 36° NW visible
01 Nov 8.8 18:51:20 10° WNW 18:51:21 10° WNW 18:51:21 10° WNW visible
